Socorro, NM

3:18 PM MDT on August 20, 2017 (GMT -0600)
Socorro Municipal

Weather History for KONM - October, 2012

Change the Weather History Date:

Thursday, October 4, 2012

  Actual Average Record
Temperature  
Mean Temperature 72 °F -  
Max Temperature 89 °F 79 °F 89 °F (2012)
Min Temperature 55 °F 46 °F 45 °F (2014)
Cooling Degree Days 7    
Growing Degree Days 22 (Base 50)    
Moisture  
Dew Point 29 °F    
Average Humidity 19    
Maximum Humidity 34    
Minimum Humidity 11    
Precipitation  
Precipitation 0.00 in - - ()
Sea Level Pressure  
Sea Level Pressure 30.16 in    
Wind  
Wind Speed 10 mph (South)    
Max Wind Speed 22 mph    
Max Gust Speed 30 mph    
Visibility 10 miles    
Events      
Averages and records for this station are not official NWS values.
T = Trace of Precipitation, MM = Missing Value Source: NWS Daily Summary

Daily Weather History Graph

Daily Weather History Graph

Search for Another Location

Airport or City:

Trip Planner

Search our weather history database for the weather conditions in past years. The results will help you decide how hot, cold, wet, or windy it might be!

Date:

Astronomy

Oct. 04, 2012 Rise Set
Actual Time 7:04 AM MDT 6:47 PM MDT
Civil Twilight 6:39 AM MDT 7:11 PM MDT
Nautical Twilight 6:10 AM MDT 7:40 PM MDT
Astronomical Twilight 5:41 AM MDT 8:09 PM MDT
Moon 9:37 PM MDT (10/4) 11:12 AM MDT (10/4)
Length of Visible Light 12h 32m
Length of Day
11h 42m
Waning Gibbous, 81% of the Moon is Illuminated
Oct 4
Waning Gibbous
Oct 8
Last Quarter
Oct 15
New
Oct 21
First Quarter
Oct 29
Full

Hourly Weather History & Observations

Time (MDT) Temp. Dew Point Humidity Pressure Visibility Wind Dir Wind Speed Gust Speed Precip Events Conditions
12:15 AM 77.9 °F 26.6 °F 15% 30.11 in 10.0 mi WNW 15.0 mph 23.0 mph N/A   Clear
12:35 AM 77.9 °F 27.3 °F 16% 30.11 in 10.0 mi WNW 19.6 mph 24.2 mph N/A   Clear
12:55 AM 77.2 °F 27.3 °F 16% 30.12 in 10.0 mi WNW 16.1 mph 24.2 mph N/A   Clear
1:15 AM 76.6 °F 27.3 °F 16% 30.12 in 10.0 mi WNW 21.9 mph 27.6 mph N/A   Clear
1:35 AM 77.2 °F 27.5 °F 16% 30.12 in 10.0 mi WNW 20.7 mph 28.8 mph N/A   Clear
1:55 AM 76.5 °F 27.5 °F 16% 30.13 in 10.0 mi WNW 18.4 mph 26.5 mph N/A   Clear
2:15 AM 77.0 °F 27.9 °F 16% 30.13 in 10.0 mi WNW 17.3 mph 25.3 mph N/A   Clear
2:35 AM 76.5 °F 27.7 °F 17% 30.13 in 10.0 mi WNW 20.7 mph 29.9 mph N/A   Clear
2:55 AM 76.8 °F 27.7 °F 16% 30.14 in 10.0 mi West 16.1 mph 27.6 mph N/A   Clear
3:15 AM 76.6 °F 27.5 °F 16% 30.14 in 10.0 mi West 16.1 mph 28.8 mph N/A   Clear
3:35 AM 74.3 °F 27.0 °F 17% 30.15 in 10.0 mi NNW 4.6 mph - N/A   Clear
3:55 AM 69.4 °F 25.9 °F 20% 30.16 in 10.0 mi South 8.1 mph - N/A   Clear
4:15 AM 67.3 °F 25.5 °F 21% 30.16 in 10.0 mi South 12.7 mph - N/A   Clear
4:35 AM 65.7 °F 25.7 °F 22% 30.16 in 10.0 mi SSW 8.1 mph - N/A   Clear
4:55 AM 60.4 °F 26.8 °F 28% 30.17 in 10.0 mi SE 4.6 mph - N/A   Clear
5:15 AM 62.8 °F 26.6 °F 25% 30.17 in 10.0 mi Calm Calm - N/A   Clear
5:35 AM 61.0 °F 27.0 °F 27% 30.18 in 10.0 mi SSW 6.9 mph - N/A   Clear
5:55 AM 61.3 °F 26.8 °F 27% 30.19 in 10.0 mi SSW 3.5 mph - N/A   Clear
6:15 AM 58.3 °F 26.6 °F 30% 30.19 in 10.0 mi Calm Calm - N/A   Clear
6:35 AM 57.0 °F 26.4 °F 31% 30.20 in 10.0 mi SSW 3.5 mph - N/A   Clear
6:55 AM 56.1 °F 27.0 °F 33% 30.21 in 10.0 mi Calm Calm - N/A   Clear
7:15 AM 55.8 °F 27.0 °F 33% 30.21 in 10.0 mi Calm Calm - N/A   Clear
7:35 AM 55.8 °F 27.5 °F 34% 30.22 in 10.0 mi Calm Calm - N/A   Clear
7:55 AM 58.6 °F 29.7 °F 33% 30.22 in 10.0 mi Calm Calm - N/A   Clear
8:15 AM 63.5 °F 30.4 °F 29% 30.23 in 10.0 mi Calm Calm - N/A   Clear
8:35 AM 64.9 °F 30.0 °F 27% 30.24 in 10.0 mi Calm Calm - N/A   Clear
8:55 AM 67.3 °F 28.9 °F 24% 30.24 in 10.0 mi Calm Calm - N/A   Clear
9:15 AM 68.9 °F 28.8 °F 22% 30.24 in 10.0 mi Calm Calm - N/A   Clear
9:35 AM 70.9 °F 29.5 °F 22% 30.25 in 10.0 mi Calm Calm - N/A   Clear
10:15 AM 74.5 °F 30.2 °F 20% 30.25 in 10.0 mi Calm Calm - N/A   Clear
10:35 AM 75.7 °F 30.2 °F 19% 30.25 in 10.0 mi Calm Calm - N/A   Clear
10:55 AM 76.5 °F 29.7 °F 18% 30.24 in 10.0 mi Calm Calm - N/A   Clear
11:15 AM 79.2 °F 30.2 °F 17% 30.24 in 10.0 mi South 4.6 mph - N/A   Clear
11:35 AM 81.3 °F 31.1 °F 16% 30.24 in 10.0 mi SE 6.9 mph - N/A   Clear
11:55 AM 82.0 °F 30.9 °F 16% 30.24 in 10.0 mi SSE 9.2 mph - N/A   Clear
12:15 PM 83.1 °F 31.6 °F 16% 30.23 in 10.0 mi SE 11.5 mph - N/A   Clear
12:35 PM 84.0 °F 31.8 °F 15% 30.22 in 10.0 mi SSE 11.5 mph 18.4 mph N/A   Clear
12:55 PM 84.4 °F 31.6 °F 15% 30.21 in 10.0 mi SE 11.5 mph 16.1 mph N/A   Clear
1:15 PM 84.4 °F 30.6 °F 14% 30.20 in 10.0 mi SSE 9.2 mph 18.4 mph N/A   Clear
1:35 PM 85.8 °F 31.8 °F 14% 30.18 in 10.0 mi SE 12.7 mph 18.4 mph N/A   Clear
1:55 PM 86.5 °F 31.3 °F 14% 30.17 in 10.0 mi SE 13.8 mph 23.0 mph N/A   Clear
2:15 PM 88.2 °F 29.7 °F 12% 30.15 in 10.0 mi South 21.9 mph 28.8 mph N/A   Clear
2:35 PM 88.7 °F 29.5 °F 12% 30.14 in 10.0 mi South 17.3 mph 23.0 mph N/A   Clear
2:55 PM 88.9 °F 29.1 °F 12% 30.14 in 10.0 mi South 17.3 mph 23.0 mph N/A   Clear
3:15 PM 88.7 °F 29.1 °F 12% 30.13 in 10.0 mi South 16.1 mph 26.5 mph N/A   Clear
3:35 PM 89.2 °F 29.8 °F 12% 30.12 in 10.0 mi South 13.8 mph 19.6 mph N/A   Clear
4:15 PM 89.4 °F 28.9 °F 11% 30.10 in 10.0 mi South 13.8 mph 18.4 mph N/A   Clear
4:35 PM 89.1 °F 28.8 °F 11% 30.10 in 10.0 mi South 13.8 mph 19.6 mph N/A   Clear
4:55 PM 88.3 °F 28.4 °F 12% 30.09 in 10.0 mi SSE 9.2 mph - N/A   Clear
5:15 PM 88.0 °F 28.9 °F 12% 30.08 in 10.0 mi South 9.2 mph - N/A   Clear
5:35 PM 87.3 °F 29.3 °F 12% 30.08 in 10.0 mi SSE 10.4 mph 17.3 mph N/A   Clear
5:55 PM 86.9 °F 29.3 °F 13% 30.08 in 10.0 mi South 11.5 mph - N/A   Clear
6:15 PM 85.8 °F 29.1 °F 13% 30.07 in 10.0 mi South 12.7 mph 21.9 mph N/A   Clear
6:55 PM 82.2 °F 28.2 °F 14% 30.08 in 10.0 mi SSW 8.1 mph - N/A   Clear
7:15 PM 79.2 °F 28.0 °F 15% 30.08 in 10.0 mi SW 8.1 mph - N/A   Clear
7:35 PM 77.4 °F 28.2 °F 16% 30.08 in 10.0 mi West 5.8 mph - N/A   Clear
8:15 PM 73.9 °F 26.4 °F 17% 30.08 in 10.0 mi West 6.9 mph - N/A   Clear
8:35 PM 72.0 °F 25.0 °F 17% 30.08 in 10.0 mi WSW 4.6 mph - N/A   Clear
9:15 PM 72.7 °F 28.4 °F 19% 30.10 in 10.0 mi ESE 5.8 mph - N/A   Clear
9:35 PM 73.2 °F 28.9 °F 19% 30.10 in 10.0 mi Calm Calm - N/A   Clear
9:55 PM 69.4 °F 29.5 °F 23% 30.11 in 10.0 mi Calm Calm - N/A   Clear
10:15 PM 68.4 °F 29.3 °F 23% 30.11 in 10.0 mi ENE 5.8 mph - N/A   Clear
10:35 PM 70.7 °F 28.2 °F 21% 30.12 in 10.0 mi East 4.6 mph - N/A   Clear
10:55 PM 69.6 °F 28.2 °F 21% 30.13 in 10.0 mi Calm Calm - N/A   Clear
11:15 PM 69.4 °F 28.4 °F 22% 30.13 in 10.0 mi East 3.5 mph - N/A   Clear
11:35 PM 65.3 °F 28.2 °F 25% 30.13 in 10.0 mi Calm Calm - N/A   Clear
11:55 PM 63.0 °F 27.9 °F 27% 30.13 in 10.0 mi Calm Calm - N/A   Clear